Stations météo

réclame
Mon MeteoGroup
Ploumanach, France (7117): Température de l'air & dewpoint: 19.03.2019 11:00:00 - 25.03.2019 11:00:00 (CET)Ploumanach, France (7117): Vitesse du vent & gusts: 19.03.2019 11:00:00 - 25.03.2019 11:00:00 (CET)Ploumanach, France (7117): Direction du vent: 19.03.2019 11:00:00 - 25.03.2019 11:00:00 (CET)Ploumanach, France (7117): reduced air pressure: 19.03.2019 11:00:00 - 25.03.2019 11:00:00 (CET)Ploumanach, France (7117): visibility: 19.03.2019 11:00:00 - 25.03.2019 11:00:00 (CET)Ploumanach, France (7117): Quantités de précipitations: 19.03.2019 11:00:00 - 25.03.2019 11:00:00 (CET)
Date & Time tt [°C] td [°C] ff [km/h] ff [knt] fx [km/h] fx [knt] dd ppp [hPa] vv [km] rr [mm]
25.03.2019 11:00:00 11,1 5,2 27 14 39 21 N 1034,6 - 0,0
25.03.2019 10:00:00 10,9 5,6 22 12 37 20 NNE 1034,0 20 0,0
25.03.2019 09:00:00 10,3 5,5 23 13 34 18 N 1033,5 - 0,0
25.03.2019 08:00:00 9,1 5,3 22 12 35 19 N 1033,1 - 0,0
25.03.2019 07:00:00 8,2 5,5 21 11 33 18 N 1032,7 - 0,0
25.03.2019 06:00:00 8,1 5,2 22 12 33 18 N 1032,5 - 0,0
25.03.2019 05:00:00 7,8 5,1 19 10 36 19 N 1032,4 - 0,0
25.03.2019 04:00:00 7,9 4,8 24 13 34 18 N 1032,4 - 0,0
25.03.2019 03:00:00 7,9 4,7 22 12 38 20 N 1032,7 - 0,0
25.03.2019 02:00:00 7,8 3,8 21 11 32 17 N 1032,8 - 0,0
25.03.2019 01:00:00 8,2 3,4 24 13 34 18 N 1033,0 - 0,0
25.03.2019 00:00:00 8,2 4,6 22 12 34 18 N 1032,8 - 0,0
24.03.2019 23:00:00 8,2 3,8 17 9 29 16 NNW 1032,9 - 0,0
24.03.2019 22:00:00 8,2 4,6 16 8 26 14 NNW 1033,0 - 0,0
24.03.2019 21:00:00 8,4 7,0 9 5 14 7 WNW 1032,7 - 0,0
24.03.2019 20:00:00 8,3 5,8 7 4 16 9 NW 1032,5 - 0,0
24.03.2019 19:00:00 9,6 6,1 8 4 16 9 N 1032,3 16 0,0
24.03.2019 18:00:00 10,9 6,6 11 6 21 11 NNE 1032,1 - 0,0
24.03.2019 17:00:00 12,0 7,1 14 7 20 11 N 1031,9 - 0,0
24.03.2019 16:00:00 12,3 7,0 13 7 20 11 NNE 1032,0 20 0,0
24.03.2019 15:00:00 12,3 7,2 13 7 23 12 NNE 1032,2 - 0,0
24.03.2019 14:00:00 12,5 7,6 16 9 24 13 NNE 1032,4 - 0,0
24.03.2019 13:00:00 12,7 7,8 18 10 24 13 NNE 1032,3 20 0,0
24.03.2019 12:00:00 11,9 7,6 16 8 23 13 NE 1032,2 - 0,0
24.03.2019 11:00:00 10,8 7,1 16 9 23 13 NE 1032,2 - 0,0
24.03.2019 10:00:00 10,7 8,5 10 6 21 11 ENE 1031,9 14 0,0
24.03.2019 09:00:00 9,4 8,0 15 8 28 15 ENE 1031,6 - 0,0
24.03.2019 08:00:00 9,2 8,1 22 12 29 15 NE 1030,8 - 0,0
24.03.2019 07:00:00 9,2 8,4 12 6 24 13 ENE 1030,1 10 0,0
24.03.2019 06:00:00 9,2 8,7 14 8 26 14 ENE 1030,0 - 0,0
24.03.2019 05:00:00 9,1 9,0 15 8 23 13 NE 1030,2 - 0,0
24.03.2019 04:00:00 8,3 7,9 5 3 14 8 ESE 1030,3 - 0,0
24.03.2019 03:00:00 8,2 8,1 8 4 14 7 ESE 1030,4 - 0,0
24.03.2019 02:00:00 7,9 7,5 8 4 18 10 E 1030,2 - 0,0
24.03.2019 01:00:00 8,2 7,8 8 5 20 11 E 1030,2 - 0,0
24.03.2019 00:00:00 8,9 8,3 12 7 25 13 E 1030,4 - 0,2
23.03.2019 23:00:00 9,2 8,7 16 8 27 14 E 1030,4 - 0,0
23.03.2019 22:00:00 9,2 8,7 14 8 25 14 ENE 1030,5 - 0,0
23.03.2019 21:00:00 9,3 8,8 14 7 23 12 ENE 1030,4 - 0,0
23.03.2019 20:00:00 9,4 8,6 13 7 24 13 ENE 1030,2 - 0,0
23.03.2019 19:00:00 9,7 8,1 14 8 24 13 ENE 1030,1 16 0,0
23.03.2019 18:00:00 10,2 7,1 18 10 29 16 ENE 1029,9 - 0,0
23.03.2019 17:00:00 10,6 7,5 22 12 36 20 NE 1029,8 - 0,0
23.03.2019 16:00:00 11,7 7,8 23 12 35 19 ENE 1029,8 16 0,0
23.03.2019 15:00:00 11,8 7,9 25 14 35 19 NE 1029,9 - 0,0
23.03.2019 14:00:00 13,6 8,6 15 8 30 16 ENE 1030,3 - 0,0
23.03.2019 13:00:00 12,0 8,8 19 11 30 16 ENE 1030,6 7 0,0
23.03.2019 12:00:00 11,6 9,3 11 6 20 11 ENE 1030,9 - 0,0
23.03.2019 11:00:00 9,3 9,0 8 4 14 7 E 1031,4 - 0,0
23.03.2019 10:00:00 8,7 8,6 9 5 13 7 E 1031,2 2,0 0,0
23.03.2019 09:00:00 7,5 7,4 4 2 13 7 ENE 1031,2 - 0,0
23.03.2019 08:00:00 6,7 6,3 8 4 18 10 ESE 1030,3 - 0,0
23.03.2019 07:00:00 7,4 6,8 10 5 16 9 ESE 1030,1 - 0,0
23.03.2019 06:00:00 7,7 7,3 8 4 11 6 ESE 1030,1 - 0,0
23.03.2019 05:00:00 8,1 7,7 6 3 11 6 NE 1030,1 - 0,0
23.03.2019 04:00:00 7,5 6,0 3 2 6 3 NE 1029,5 - 0,0
23.03.2019 03:00:00 7,6 5,9 0 0 8 4 N 1029,8 - 0,0
23.03.2019 02:00:00 7,9 5,5 5 3 9 5 E 1029,9 - 0,0
23.03.2019 01:00:00 7,8 5,4 2 1 8 5 NE 1030,0 - 0,0
23.03.2019 00:00:00 8,4 5,1 5 3 11 6 ESE 1030,1 - 0,0
22.03.2019 23:00:00 8,6 5,7 6 3 11 6 E 1030,1 - 0,0
22.03.2019 22:00:00 9,3 7,1 8 4 10 6 ESE 1029,9 - 0,0
22.03.2019 21:00:00 9,5 7,9 5 3 9 5 E 1029,6 - 0,0
22.03.2019 20:00:00 8,9 7,0 6 3 10 5 E 1029,2 - 0,0
22.03.2019 19:00:00 9,9 6,8 6 4 10 6 E 1028,5 12 0,0
22.03.2019 18:00:00 11,3 7,4 6 4 12 7 E 1028,2 - 0,0
22.03.2019 17:00:00 11,7 7,4 8 4 11 6 E 1028,2 - 0,0
22.03.2019 16:00:00 12,5 8,0 8 4 11 6 NE 1028,4 14 0,0
22.03.2019 15:00:00 12,3 8,0 6 3 10 6 NE 1028,5 - 0,0
22.03.2019 14:00:00 12,8 7,5 6 4 10 5 NNE 1028,8 - 0,0
22.03.2019 13:00:00 13,2 7,6 5 3 10 5 NNE 1029,0 14 0,0
22.03.2019 12:00:00 12,4 7,9 5 3 9 5 ENE 1029,2 - 0,0
22.03.2019 11:00:00 11,9 7,8 5 3 8 5 ENE 1029,5 - 0,0
22.03.2019 10:00:00 12,2 8,1 3 1 11 6 NE 1029,4 15 0,0
22.03.2019 09:00:00 9,6 7,0 6 3 9 5 E 1029,5 - 0,0
22.03.2019 08:00:00 8,0 6,3 0 0 13 7 N 1029,3 - 0,0
22.03.2019 07:00:00 8,0 6,6 8 4 11 6 SE 1029,1 15 0,0
22.03.2019 06:00:00 7,8 6,6 4 2 5 3 ESE 1029,0 - 0,0
22.03.2019 05:00:00 7,6 6,5 0 0 3 1 N 1029,3 - 0,0
22.03.2019 04:00:00 7,2 5,8 0 0 7 4 N 1029,8 - 0,0
22.03.2019 03:00:00 7,9 5,5 7 4 16 9 E 1029,8 - 0,0
22.03.2019 02:00:00 8,4 5,7 9 5 16 9 ESE 1030,0 - 0,0
22.03.2019 01:00:00 9,1 5,8 9 5 21 11 ESE 1030,7 - -
22.03.2019 00:00:00 8,7 5,6 9 5 18 10 SE 1031,4 - 0,0
21.03.2019 23:00:00 8,6 5,5 8 4 14 8 SE 1031,8 - 0,0
21.03.2019 22:00:00 8,4 5,1 4 2 12 6 ESE 1032,2 - 0,0
21.03.2019 21:00:00 9,3 5,7 6 3 16 9 E 1032,2 - 0,0
21.03.2019 20:00:00 10,2 6,7 8 4 16 9 ENE 1032,2 - 0,0
21.03.2019 19:00:00 10,3 8,4 8 4 16 9 ENE 1032,3 10 0,0
21.03.2019 18:00:00 10,7 9,0 5 3 13 7 ENE 1032,2 - 0,0
21.03.2019 17:00:00 10,6 9,5 5 3 10 6 ENE 1032,5 - 0,0
21.03.2019 16:00:00 10,8 9,2 4 2 9 5 NE 1033,0 10 0,0
21.03.2019 15:00:00 10,7 9,1 7 4 9 5 NE 1033,8 - 0,0
21.03.2019 14:00:00 11,0 9,3 5 3 9 5 NE 1034,6 - 0,0
21.03.2019 13:00:00 11,3 9,4 5 3 8 4 NE 1034,9 20 0,0
21.03.2019 12:00:00 11,4 9,1 4 2 9 5 NE 1035,2 - 0,0
21.03.2019 11:00:00 12,2 9,8 6 4 8 5 N 1035,1 - 0,0
21.03.2019 10:00:00 11,2 9,3 2 1 5 3 W 1035,2 18 0,0
21.03.2019 09:00:00 10,3 9,4 0 0 4 2 N 1035,1 - 0,0
21.03.2019 08:00:00 9,8 8,9 0 0 5 3 N 1034,9 - 0,0
21.03.2019 07:00:00 9,8 8,7 3 2 5 3 NW 1034,7 18 0,0
21.03.2019 06:00:00 9,9 8,5 3 1 9 5 WNW 1034,4 - 0,0
21.03.2019 05:00:00 9,8 7,7 3 2 9 5 W 1034,2 - 0,0
21.03.2019 04:00:00 10,1 7,7 6 4 10 6 SSW 1034,3 - 0,0
21.03.2019 03:00:00 10,0 8,3 8 4 11 6 SSW 1034,6 - 0,0
21.03.2019 02:00:00 10,1 8,5 8 4 12 6 SW 1034,8 - 0,0
21.03.2019 01:00:00 10,4 9,0 6 3 12 6 SW 1035,2 - 0,0
21.03.2019 00:00:00 10,3 8,9 5 3 7 4 SW 1035,2 - 0,0
20.03.2019 23:00:00 10,4 9,0 4 2 6 3 SW 1035,4 - 0,0
20.03.2019 22:00:00 10,5 8,9 4 2 7 4 SW 1035,5 - 0,0
20.03.2019 21:00:00 10,5 8,6 5 3 9 5 WSW 1035,1 - 0,0
20.03.2019 20:00:00 10,7 8,5 7 4 13 7 SW 1034,7 - 0,0
20.03.2019 19:00:00 11,3 8,5 7 4 13 7 WSW 1034,4 20 0,0
20.03.2019 18:00:00 12,0 8,1 8 4 13 7 WSW 1034,1 - 0,0
20.03.2019 17:00:00 12,2 8,8 6 3 12 6 W 1034,1 - 0,0
20.03.2019 16:00:00 12,4 9,0 7 4 12 6 W 1034,2 20 0,0
20.03.2019 15:00:00 11,7 9,6 8 4 20 11 W 1034,7 - 0,0
20.03.2019 14:00:00 12,5 9,3 8 5 22 12 W 1034,9 - 0,0
20.03.2019 13:00:00 12,4 8,5 16 9 24 13 W 1034,7 20 0,0
20.03.2019 12:00:00 13,2 9,8 11 6 20 11 WSW 1034,9 - 0,0
20.03.2019 11:00:00 11,6 9,0 13 7 22 12 WSW 1034,9 - 0,0
20.03.2019 10:00:00 10,8 8,9 10 5 21 11 SW 1034,8 15 0,0
20.03.2019 09:00:00 9,6 9,1 10 6 19 10 SW 1034,2 - 0,0
20.03.2019 08:00:00 8,6 8,3 11 6 17 9 SSW 1033,6 - 0,0
20.03.2019 07:00:00 8,4 8,3 11 6 16 9 SW 1033,1 15 0,0
20.03.2019 06:00:00 8,4 8,1 9 5 19 10 SSW 1032,7 - 0,2
20.03.2019 05:00:00 8,4 7,5 12 7 17 9 SW 1032,6 - 0,0
20.03.2019 04:00:00 7,9 6,8 10 6 18 10 SW 1032,7 - 0,0
20.03.2019 03:00:00 7,9 6,7 12 7 18 10 SW 1032,8 - 0,0
20.03.2019 02:00:00 8,3 6,9 12 6 18 10 SSW 1033,0 - 0,0
20.03.2019 01:00:00 7,9 6,7 11 6 17 9 SSW 1033,1 - 0,0
20.03.2019 00:00:00 8,1 7,0 11 6 17 9 SSW 1033,2 - 0,0
19.03.2019 23:00:00 8,0 6,9 11 6 16 9 SSW 1032,9 - 0,0
19.03.2019 22:00:00 8,3 6,9 9 5 11 6 SW 1032,9 - 0,0
19.03.2019 21:00:00 8,1 6,6 6 4 9 5 SW 1032,3 - 0,0
19.03.2019 20:00:00 8,5 6,6 5 3 10 6 SW 1031,6 - 0,0
19.03.2019 19:00:00 10,1 6,8 8 5 16 9 W 1031,1 20 0,0
19.03.2019 18:00:00 11,1 7,4 8 5 22 12 W 1030,6 - 0,0
19.03.2019 17:00:00 11,9 7,8 15 8 27 14 WNW 1030,4 - 0,0
19.03.2019 16:00:00 11,9 7,6 15 8 26 14 WNW 1030,3 18 0,0
19.03.2019 15:00:00 12,1 8,2 12 7 22 12 W 1030,4 - 0,0
19.03.2019 14:00:00 11,3 8,0 13 7 24 13 W 1030,3 - 0,0
19.03.2019 13:00:00 10,7 8,1 9 5 16 9 WNW 1030,3 18 0,0
19.03.2019 12:00:00 10,1 8,5 9 5 21 11 WSW 1030,2 - 0,2
19.03.2019 11:00:00 10,6 8,9 10 5 16 9 WSW 1029,7 - 0,0

tt = Température de l'air
td = dewpoint
ff = Vitesse du vent
fx = gusts
dd = Direction du vent
ppp = reduced air pressure
vv = visibility
rr = Quantités de précipitations

stations d'obs. à proximité